Overview Statistics Trail Chart Weather Telemetry Raw packets
 

This is the latest recevied weather packets stored in our database for station/object WABI. If no packets are shown the sender has not sent any weather packets the latest 10 day(s).

<< 1 2 3 4 5 6 >>
Time Temp. Humidity Pressure Rain* Wind** Luminosity Snow
1788130668 25° C 83% 1 hPa 0 mm - - -
1788124080 23.89° C 89% 1 hPa 0 mm - - -
1788121839 23.89° C 89% 1 hPa 0 mm - - -
1788119905 23.89° C 89% 1 hPa 0 mm - - -
1788117971 23.89° C 89% 1 hPa 0 mm - - -
1788116028 23.89° C 89% 1 hPa 0 mm - - -
1788114088 25° C 83% 1 hPa 0 mm - - -
1788112132 25° C 83% 1 hPa 0 mm - - -
1788110183 25° C 83% 1 hPa 0 mm - - -
1788106314 25° C 83% 1 hPa 0 mm - - -
1788104240 25° C 83% 1 hPa 0 mm - - -
1788102298 25° C 83% 1 hPa 0 mm - - -
1788100305 25° C 83% 1 hPa 0 mm - - -
1788098324 25° C 83% 1 hPa 0 mm - - -
1788094322 27.22° C 79% 1 hPa 0 mm - - -
1788092362 27.22° C 79% 1 hPa 0 mm - - -
1788090360 26.11° C 89% 1 hPa 0 mm - - -
1788088385 26.11° C 89% 1 hPa 0 mm - - -
1788086414 27.22° C 89% 1 hPa 0 mm - - -
1788084447 28.89° C 74% 1 hPa 0 mm - - -
1788082479 30° C 70% 1 hPa 0 mm - - -
1788080501 30° C 70% 1 hPa 0 mm - - -
1788078528 31.11° C 66% 1009 hPa 0 mm - - -
1788076555 32.22° C 59% 1009 hPa 0 mm - - -
1788074588 32.78° C 56% 1009 hPa 0 mm - - -

* Rain latest hour (hover to see other rain measurements)
** Current wind speed in m/s (hover to see current wind gust speed)